BOX116 EDDP-EBBR

Flight info

Callsign BOX116
Flight time 0h 55m
Altitude 32000
Route ORTAG5E ORTAG Q230 KUMER DCT WRB DCT ABAMI Z717 NEREL T855 BATTY
Aircraft B77L/H-SDE1E2E3FGHIJ2J3J4J5M1RWXY/LB1D1

Departure

Time 2026-05-07 16:18
Airport Leipzig/Halle Airport (EDDP)

Arrival

Time 2026-05-07 17:14
Airport Brussels Airport (EBBR)
Time Latitude Longitude Altitude Speed Heading
2026-05-07 15:47 51.40892 12.24503 468 ft 0 kts 266°
2026-05-07 16:09 51.40892 12.24507 470 ft 3 kts 266°
2026-05-07 16:10 51.40894 12.24549 467 ft 4 kts 265°
2026-05-07 16:10 51.40896 12.24586 462 ft 4 kts 251°
2026-05-07 16:10 51.40905 12.24612 464 ft 4 kts 205°
2026-05-07 16:10 51.40928 12.24618 465 ft 4 kts 175°
2026-05-07 16:11 51.40944 12.24616 467 ft 1 kts 175°
2026-05-07 16:11 51.40943 12.24616 467 ft 0 kts 175°
2026-05-07 16:12 51.40942 12.24616 467 ft 1 kts 175°
2026-05-07 16:13 51.40930 12.24633 464 ft 3 kts 111°
2026-05-07 16:13 51.40944 12.24652 464 ft 3 kts 17°
2026-05-07 16:13 51.40965 12.24662 466 ft 3 kts 17°
2026-05-07 16:13 51.40988 12.24664 467 ft 4 kts 347°
2026-05-07 16:14 51.41035 12.24647 470 ft 10 kts 347°
2026-05-07 16:14 51.41120 12.24586 465 ft 17 kts 330°
2026-05-07 16:14 51.41174 12.24407 467 ft 22 kts 264°
2026-05-07 16:14 51.41156 12.24117 470 ft 29 kts 264°
2026-05-07 16:15 51.41137 12.23778 471 ft 33 kts 265°
2026-05-07 16:15 51.41114 12.23385 473 ft 38 kts 265°
2026-05-07 16:15 51.41104 12.22946 468 ft 41 kts 268°
2026-05-07 16:15 51.41084 12.22483 460 ft 42 kts 264°
2026-05-07 16:16 51.41057 12.22017 460 ft 42 kts 266°
2026-05-07 16:16 51.41044 12.21554 459 ft 42 kts 263°
2026-05-07 16:16 51.41018 12.21077 449 ft 44 kts 266°
2026-05-07 16:16 51.40998 12.20588 432 ft 41 kts 271°
2026-05-07 16:17 51.41143 12.20549 431 ft 26 kts 44°
2026-05-07 16:17 51.41171 12.20722 433 ft 10 kts 86°
2026-05-07 16:17 51.41186 12.21015 450 ft 58 kts 85°
2026-05-07 16:17 51.41240 12.22038 460 ft 124 kts 86°
2026-05-07 16:18 51.41335 12.23707 475 ft 173 kts 84°
2026-05-07 16:18 51.41423 12.25623 1079 ft 168 kts 84°
2026-05-07 16:18 51.41476 12.27505 1836 ft 169 kts 84°
2026-05-07 16:18 51.41565 12.29405 2417 ft 176 kts 83°
2026-05-07 16:19 51.41669 12.31470 2737 ft 196 kts 83°
2026-05-07 16:19 51.41785 12.33766 2967 ft 222 kts 84°
2026-05-07 16:19 51.41918 12.36385 3235 ft 246 kts 84°
2026-05-07 16:19 51.42224 12.39120 3741 ft 255 kts 65°
2026-05-07 16:20 51.43304 12.41375 4398 ft 260 kts 36°
2026-05-07 16:20 51.44954 12.42557 5132 ft 264 kts
2026-05-07 16:20 51.46779 12.42458 5874 ft 264 kts 346°
2026-05-07 16:20 51.48576 12.41674 6524 ft 272 kts 344°
2026-05-07 16:21 51.50409 12.40868 7304 ft 273 kts 344°
2026-05-07 16:21 51.52254 12.40070 8101 ft 275 kts 344°
2026-05-07 16:21 51.54113 12.39272 8857 ft 278 kts 344°
2026-05-07 16:21 51.55907 12.38109 9469 ft 282 kts 322°
2026-05-07 16:22 51.57191 12.35740 9977 ft 284 kts 296°
2026-05-07 16:22 51.57912 12.32754 10015 ft 289 kts 288°
2026-05-07 16:22 51.58543 12.29687 10026 ft 289 kts 288°
2026-05-07 16:22 51.59193 12.26579 10094 ft 301 kts 288°
2026-05-07 16:23 51.59893 12.23270 10278 ft 325 kts 289°
2026-05-07 16:23 51.60824 12.19868 10405 ft 344 kts 304°
2026-05-07 16:23 51.62586 12.17157 10751 ft 357 kts 326°
2026-05-07 16:23 51.64714 12.15068 11263 ft 368 kts 328°
2026-05-07 16:24 51.66921 12.12893 12016 ft 373 kts 327°
2026-05-07 16:24 51.68933 12.10305 12609 ft 376 kts 309°
2026-05-07 16:24 51.70211 12.06609 13367 ft 380 kts 288°
2026-05-07 16:24 51.70681 12.02413 14198 ft 382 kts 270°
2026-05-07 16:25 51.70546 11.98127 14843 ft 385 kts 265°
2026-05-07 16:25 51.70310 11.93804 15522 ft 390 kts 264°
2026-05-07 16:25 51.70052 11.89434 16278 ft 392 kts 264°
2026-05-07 16:25 51.69799 11.85051 17000 ft 394 kts 264°
2026-05-07 16:26 51.69554 11.80628 17682 ft 398 kts 265°
2026-05-07 16:26 51.69315 11.76155 18333 ft 403 kts 265°
2026-05-07 16:26 51.69079 11.71625 18921 ft 407 kts 265°
2026-05-07 16:26 51.68845 11.67064 19523 ft 410 kts 265°
2026-05-07 16:27 51.68612 11.62531 20126 ft 412 kts 265°
2026-05-07 16:27 51.68373 11.57916 20719 ft 416 kts 265°
2026-05-07 16:27 51.68130 11.53251 21295 ft 419 kts 264°
2026-05-07 16:27 51.67883 11.48540 21895 ft 423 kts 264°
2026-05-07 16:28 51.67634 11.43807 22490 ft 426 kts 264°
2026-05-07 16:28 51.67379 11.39036 23075 ft 429 kts 264°
2026-05-07 16:28 51.67111 11.34226 23652 ft 429 kts 262°
2026-05-07 16:28 51.66319 11.29577 23942 ft 435 kts 244°
2026-05-07 16:29 51.64644 11.25490 24412 ft 439 kts 229°
2026-05-07 16:29 51.62374 11.22223 24948 ft 440 kts 214°
2026-05-07 16:29 51.59777 11.19607 25491 ft 442 kts 212°
2026-05-07 16:29 51.57167 11.16979 25989 ft 444 kts 213°
2026-05-07 16:30 51.54567 11.14251 26459 ft 445 kts 215°
2026-05-07 16:30 51.52249 11.10931 26746 ft 451 kts 231°
2026-05-07 16:30 51.50693 11.06634 27164 ft 455 kts 249°
2026-05-07 16:30 51.49884 11.01646 27715 ft 458 kts 261°
2026-05-07 16:31 51.49820 10.96602 28202 ft 461 kts 276°
2026-05-07 16:31 51.50407 10.91512 28595 ft 466 kts 280°
2026-05-07 16:31 51.51092 10.86389 28996 ft 471 kts 280°
2026-05-07 16:31 51.51763 10.81232 29481 ft 474 kts 279°
2026-05-07 16:32 51.52390 10.76037 30037 ft 474 kts 279°
2026-05-07 16:32 51.52981 10.70854 30604 ft 472 kts 278°
2026-05-07 16:32 51.53523 10.65652 31151 ft 469 kts 275°
2026-05-07 16:32 51.53802 10.60446 31697 ft 466 kts 270°
2026-05-07 16:33 51.53766 10.55255 32112 ft 466 kts 267°
2026-05-07 16:33 51.53552 10.44759 32071 ft 467 kts 266°
2026-05-07 16:34 51.53345 10.34410 32066 ft 462 kts 266°
2026-05-07 16:34 51.53154 10.24093 32073 ft 462 kts 266°
2026-05-07 16:35 51.52967 10.13833 32074 ft 463 kts 266°
2026-05-07 16:35 51.52771 10.03492 32073 ft 463 kts 266°
2026-05-07 16:36 51.52564 9.93146 32079 ft 464 kts 266°
2026-05-07 16:36 51.52347 9.82788 32068 ft 464 kts 266°
2026-05-07 16:37 51.52122 9.72420 32073 ft 464 kts 266°
2026-05-07 16:37 51.51887 9.62065 32076 ft 463 kts 266°
2026-05-07 16:38 51.51644 9.51745 32076 ft 463 kts 266°
2026-05-07 16:38 51.51391 9.41404 32075 ft 463 kts 266°
2026-05-07 16:39 51.51130 9.31071 32076 ft 463 kts 266°
2026-05-07 16:39 51.50862 9.20790 32074 ft 464 kts 266°
2026-05-07 16:40 51.50582 9.10446 32074 ft 464 kts 266°
2026-05-07 16:40 51.50221 9.00090 32071 ft 464 kts 265°
2026-05-07 16:41 51.49812 8.89742 32067 ft 465 kts 265°
2026-05-07 16:41 51.49400 8.79383 32075 ft 465 kts 265°
2026-05-07 16:42 51.48987 8.69004 32071 ft 466 kts 265°
2026-05-07 16:42 51.48567 8.58611 32083 ft 467 kts 265°
2026-05-07 16:43 51.48140 8.48283 32072 ft 467 kts 265°
2026-05-07 16:43 51.47701 8.37883 32071 ft 467 kts 265°
2026-05-07 16:44 51.47253 8.27478 32071 ft 467 kts 265°
2026-05-07 16:44 51.46794 8.17067 32068 ft 467 kts 265°
2026-05-07 16:45 51.46327 8.06677 32069 ft 467 kts 265°
2026-05-07 16:45 51.45852 7.96283 32076 ft 467 kts 265°
2026-05-07 16:46 51.45367 7.85909 32071 ft 466 kts 265°
2026-05-07 16:46 51.44873 7.75529 32079 ft 466 kts 265°
2026-05-07 16:47 51.44374 7.65225 32071 ft 466 kts 264°
2026-05-07 16:47 51.43864 7.54894 32078 ft 465 kts 264°
2026-05-07 16:48 51.43346 7.44551 32078 ft 465 kts 264°
2026-05-07 16:48 51.42759 7.34250 32074 ft 464 kts 259°
2026-05-07 16:49 51.40667 7.24530 32073 ft 462 kts 242°
2026-05-07 16:49 51.37049 7.16053 32070 ft 461 kts 232°
2026-05-07 16:50 51.33196 7.08006 31449 ft 450 kts 232°
2026-05-07 16:50 51.31317 7.04049 30980 ft 445 kts 233°
2026-05-07 16:50 51.30083 7.01436 30652 ft 442 kts 233°
2026-05-07 16:50 51.27654 6.96267 30000 ft 436 kts 233°
2026-05-07 16:51 51.26430 6.93659 29610 ft 433 kts 233°
2026-05-07 16:51 51.24059 6.88601 28942 ft 426 kts 233°
2026-05-07 16:51 51.22293 6.84841 28461 ft 421 kts 233°
2026-05-07 16:51 51.21111 6.82327 28142 ft 418 kts 233°
2026-05-07 16:52 51.19375 6.78641 27670 ft 413 kts 233°
2026-05-07 16:52 51.17652 6.74989 27194 ft 409 kts 233°
2026-05-07 16:52 51.15970 6.71428 26745 ft 405 kts 233°
2026-05-07 16:52 51.14281 6.67857 26261 ft 402 kts 233°
2026-05-07 16:53 51.12602 6.64310 25813 ft 399 kts 233°
2026-05-07 16:53 51.10936 6.60798 25376 ft 396 kts 233°
2026-05-07 16:53 51.09277 6.57326 24915 ft 393 kts 232°
2026-05-07 16:53 51.07473 6.54079 24493 ft 391 kts 226°
2026-05-07 16:54 51.05545 6.51038 24070 ft 388 kts 225°
2026-05-07 16:54 51.03622 6.48038 23623 ft 386 kts 225°
2026-05-07 16:54 51.01711 6.45056 23117 ft 384 kts 225°
2026-05-07 16:54 50.99812 6.42086 22648 ft 382 kts 225°
2026-05-07 16:55 50.97926 6.39130 22224 ft 379 kts 225°
2026-05-07 16:55 50.96066 6.36211 21811 ft 375 kts 225°
2026-05-07 16:55 50.94237 6.33338 21418 ft 372 kts 225°
2026-05-07 16:55 50.92382 6.30428 20992 ft 369 kts 225°
2026-05-07 16:56 50.90585 6.27611 20576 ft 366 kts 225°
2026-05-07 16:56 50.88780 6.24783 20189 ft 363 kts 225°
2026-05-07 16:56 50.85209 6.19199 19382 ft 358 kts 225°
2026-05-07 16:57 50.83440 6.16438 18985 ft 356 kts 225°
2026-05-07 16:57 50.81685 6.13700 18569 ft 353 kts 225°
2026-05-07 16:57 50.79941 6.10983 18148 ft 351 kts 225°
2026-05-07 16:57 50.78206 6.08283 17682 ft 349 kts 225°
2026-05-07 16:58 50.76483 6.05607 17257 ft 346 kts 225°
2026-05-07 16:58 50.74790 6.02933 16840 ft 342 kts 228°
2026-05-07 16:58 50.73230 6.00144 16447 ft 337 kts 231°
2026-05-07 16:58 50.71713 5.97342 16061 ft 334 kts 231°
2026-05-07 16:59 50.70205 5.94566 15664 ft 331 kts 231°
2026-05-07 16:59 50.68707 5.91829 15291 ft 328 kts 231°
2026-05-07 16:59 50.67227 5.89112 14908 ft 322 kts 234°
2026-05-07 16:59 50.66218 5.86041 14520 ft 313 kts 258°
2026-05-07 17:00 50.66065 5.82736 14207 ft 307 kts 277°
2026-05-07 17:00 50.66568 5.79485 13898 ft 306 kts 294°
2026-05-07 17:00 50.67495 5.76423 13536 ft 313 kts 298°
2026-05-07 17:00 50.68513 5.73327 13147 ft 321 kts 298°
2026-05-07 17:01 50.69552 5.70205 12775 ft 321 kts 298°
2026-05-07 17:01 50.70580 5.67097 12414 ft 318 kts 298°
2026-05-07 17:01 50.71590 5.64015 12054 ft 314 kts 298°
2026-05-07 17:01 50.72579 5.60968 11706 ft 310 kts 298°
2026-05-07 17:02 50.73553 5.57949 11358 ft 306 kts 298°
2026-05-07 17:02 50.74510 5.54970 11016 ft 303 kts 298°
2026-05-07 17:02 50.75455 5.52018 10679 ft 299 kts 298°
2026-05-07 17:02 50.76384 5.49111 10479 ft 291 kts 298°
2026-05-07 17:03 50.77279 5.46301 10318 ft 281 kts 298°
2026-05-07 17:03 50.78138 5.43599 10203 ft 270 kts 298°
2026-05-07 17:03 50.78962 5.41005 10074 ft 258 kts 298°
2026-05-07 17:03 50.79752 5.38516 9895 ft 251 kts 298°
2026-05-07 17:04 50.80529 5.36071 9591 ft 252 kts 298°
2026-05-07 17:04 50.81323 5.33567 9329 ft 260 kts 298°
2026-05-07 17:04 50.82145 5.30975 9019 ft 265 kts 298°
2026-05-07 17:04 50.82973 5.28356 8692 ft 266 kts 298°
2026-05-07 17:05 50.83798 5.25745 8368 ft 264 kts 298°
2026-05-07 17:05 50.84613 5.23162 8055 ft 261 kts 298°
2026-05-07 17:05 50.85420 5.20600 7736 ft 259 kts 298°
2026-05-07 17:05 50.86220 5.18060 7449 ft 256 kts 298°
2026-05-07 17:06 50.87011 5.15544 7151 ft 254 kts 298°
2026-05-07 17:06 50.87789 5.13035 6842 ft 253 kts 295°
2026-05-07 17:06 50.88449 5.10493 6576 ft 252 kts 292°
2026-05-07 17:06 50.89070 5.07903 6287 ft 252 kts 292°
2026-05-07 17:07 50.89690 5.05306 6006 ft 252 kts 292°
2026-05-07 17:07 50.90311 5.02720 5733 ft 251 kts 292°
2026-05-07 17:07 50.90933 5.00139 5461 ft 250 kts 292°
2026-05-07 17:07 50.91555 4.97566 5201 ft 249 kts 293°
2026-05-07 17:08 50.92176 4.95002 4934 ft 249 kts 293°
2026-05-07 17:08 50.92793 4.92455 4682 ft 245 kts 293°
2026-05-07 17:08 50.93398 4.89956 4356 ft 240 kts 293°
2026-05-07 17:08 50.93989 4.87516 4085 ft 233 kts 293°
2026-05-07 17:09 50.94562 4.85146 3841 ft 226 kts 293°
2026-05-07 17:09 50.95125 4.82819 3612 ft 224 kts 293°
2026-05-07 17:09 50.95670 4.80558 3397 ft 213 kts 293°
2026-05-07 17:09 50.95839 4.78301 3130 ft 206 kts 260°
2026-05-07 17:10 50.95390 4.76240 3067 ft 194 kts 252°
2026-05-07 17:10 50.94939 4.74257 3003 ft 191 kts 253°
2026-05-07 17:10 50.94499 4.72326 2964 ft 183 kts 252°
2026-05-07 17:10 50.94056 4.70396 2727 ft 186 kts 252°
2026-05-07 17:11 50.93621 4.68514 2482 ft 177 kts 252°
2026-05-07 17:11 50.93206 4.66709 2270 ft 173 kts 252°
2026-05-07 17:11 50.92790 4.64933 2055 ft 171 kts 250°
2026-05-07 17:11 50.92321 4.63208 1854 ft 170 kts 249°
2026-05-07 17:12 50.91913 4.61439 1576 ft 173 kts 253°
2026-05-07 17:12 50.91547 4.59625 1346 ft 172 kts 255°
2026-05-07 17:12 50.91171 4.57855 1071 ft 171 kts 252°
2026-05-07 17:12 50.90758 4.56092 746 ft 169 kts 251°
2026-05-07 17:13 50.90363 4.54389 495 ft 162 kts 252°
2026-05-07 17:13 50.89988 4.52742 257 ft 154 kts 252°
2026-05-07 17:13 50.89637 4.51213 168 ft 139 kts 251°
2026-05-07 17:13 50.89367 4.50043 179 ft 87 kts 250°
2026-05-07 17:14 50.89218 4.49351 172 ft 42 kts 264°
2026-05-07 17:14 50.89270 4.49216 171 ft 12 kts 323°
2026-05-07 17:14 50.89303 4.49169 170 ft 0 kts 308°
2026-05-07 17:15 50.89307 4.49162 170 ft 4 kts 308°
2026-05-07 17:15 50.89350 4.49078 169 ft 10 kts 314°
2026-05-07 17:16 50.89404 4.49020 168 ft 15 kts 326°
2026-05-07 17:16 50.89504 4.48994 164 ft 17 kts 31°
2026-05-07 17:16 50.89625 4.49113 165 ft 22 kts 32°
2026-05-07 17:16 50.89751 4.49193 164 ft 18 kts 11°
2026-05-07 17:17 50.89883 4.49239 162 ft 21 kts 14°
2026-05-07 17:17 50.90039 4.49303 156 ft 25 kts 15°
2026-05-07 17:17 50.90223 4.49380 147 ft 30 kts 14°
2026-05-07 17:17 50.90429 4.49466 133 ft 32 kts 15°
2026-05-07 17:18 50.90491 4.49487 133 ft 7 kts 13°
2026-05-07 17:18 50.90543 4.49507 128 ft 8 kts 14°
2026-05-07 17:18 50.90609 4.49534 125 ft 11 kts 14°
2026-05-07 17:18 50.90699 4.49570 123 ft 15 kts 13°
2026-05-07 17:19 50.90772 4.49492 117 ft 14 kts 268°
2026-05-07 17:19 50.90729 4.49358 118 ft 14 kts 245°
2026-05-07 17:19 50.90685 4.49210 115 ft 17 kts 244°
2026-05-07 17:19 50.90624 4.49005 115 ft 23 kts 245°
2026-05-07 17:20 50.90547 4.48752 118 ft 28 kts 244°
2026-05-07 17:20 50.90459 4.48468 120 ft 31 kts 243°
2026-05-07 17:20 50.90358 4.48146 124 ft 35 kts 243°
2026-05-07 17:20 50.90244 4.47786 123 ft 39 kts 243°
2026-05-07 17:21 50.90160 4.47394 125 ft 36 kts 246°
2026-05-07 17:21 50.90181 4.47084 125 ft 20 kts 294°
2026-05-07 17:21 50.90186 4.47064 124 ft 2 kts 294°
2026-05-07 17:21 50.90214 4.46968 123 ft 18 kts 294°
2026-05-07 17:22 50.90288 4.46735 124 ft 27 kts 297°
2026-05-07 17:22 50.90351 4.46538 126 ft 13 kts 294°
2026-05-07 17:22 50.90359 4.46496 134 ft 0 kts 285°
2026-05-07 17:24 50.90362 4.46480 134 ft 5 kts 283°
2026-05-07 17:24 50.90354 4.46382 132 ft 14 kts 250°
2026-05-07 17:24 50.90310 4.46206 125 ft 19 kts 281°
2026-05-07 17:25 50.90397 4.46116 125 ft 3 kts 335°